West Plains, MO

12:06 AM CDT on June 23, 2017 (GMT -0500)
West Plains Municipal

Weather History for KUNO - April, 2013

Change the Weather History Date:

Friday, April 5, 2013

  Actual Average Record
Temperature  
Mean Temperature 53 °F 54 °F  
Max Temperature 70 °F 67 °F 87 °F (1967)
Min Temperature 35 °F 42 °F 27 °F (1994)
Degree Days  
Heating Degree Days 12 11  
Month to date heating degree days 91 58  
Since 1 July heating degree days 4137 4068  
Cooling Degree Days 0 0  
Month to date cooling degree days 0 0  
Year to date cooling degree days 0 4  
Growing Degree Days 3 (Base 50)    
Moisture  
Dew Point 28 °F    
Average Humidity 41    
Maximum Humidity 59    
Minimum Humidity 22    
Precipitation  
Precipitation 0.00 in 0.12 in 1.81 in (1997)
Month to date precipitation 0.06 0.67  
Year to date precipitation 11.13 10.52  
Sea Level Pressure  
Sea Level Pressure 30.11 in    
Wind  
Wind Speed 4 mph (WSW)    
Max Wind Speed 12 mph    
Max Gust Speed 15 mph    
Visibility 10 miles    
Events      
T = Trace of Precipitation, MM = Missing Value Source: NWS Daily Summary

Daily Weather History Graph

Daily Weather History Graph

Search for Another Location

Airport or City:

Trip Planner

Search our weather history database for the weather conditions in past years. The results will help you decide how hot, cold, wet, or windy it might be!

Date:

Astronomy

Apr. 05, 2013 Rise Set
Actual Time 6:47 AM CDT 7:33 PM CDT
Civil Twilight 6:20 AM CDT 8:00 PM CDT
Nautical Twilight 5:49 AM CDT 8:31 PM CDT
Astronomical Twilight 5:18 AM CDT 9:03 PM CDT
Moon 3:47 AM CDT (4/5) 3:04 PM CDT (4/5)
Length of Visible Light 13h 39m
Length of Day
12h 46m
Waning Crescent, 23% of the Moon is Illuminated
Apr 5
Waning Crescent
Apr 10
New
Apr 18
First Quarter
Apr 25
Full
May 2
Last Quarter

Hourly Weather History & Observations

Time (CDT) Temp. Windchill Dew Point Humidity Pressure Visibility Wind Dir Wind Speed Gust Speed Precip Events Conditions
12:53 AM 43.0 °F 40.3 °F 25.0 °F 49% 30.10 in 10.0 mi NW 4.6 mph - N/A   Clear
1:53 AM 43.0 °F 40.3 °F 25.0 °F 49% 30.11 in 10.0 mi North 4.6 mph - N/A   Clear
2:53 AM 42.1 °F 39.2 °F 24.1 °F 49% 30.10 in 10.0 mi NNW 4.6 mph - N/A   Clear
3:53 AM 42.1 °F 39.2 °F 24.1 °F 49% 30.11 in 10.0 mi NW 4.6 mph - N/A   Clear
4:53 AM 39.9 °F 36.7 °F 24.1 °F 53% 30.12 in 10.0 mi WNW 4.6 mph - N/A   Clear
5:53 AM 37.0 °F - 25.0 °F 62% 30.14 in 10.0 mi Calm Calm - N/A   Clear
6:53 AM 41.0 °F 39.0 °F 24.1 °F 51% 30.15 in 10.0 mi NW 3.5 mph - N/A   Clear
7:53 AM 45.0 °F - 30.9 °F 58% 30.16 in 10.0 mi Calm Calm - N/A   Clear
8:53 AM 53.1 °F - 30.0 °F 41% 30.16 in 10.0 mi Variable 3.5 mph - N/A   Clear
9:53 AM 59.0 °F - 28.0 °F 31% 30.17 in 10.0 mi Variable 3.5 mph - N/A   Clear
10:53 AM 62.1 °F - 27.0 °F 26% 30.18 in 10.0 mi North 4.6 mph - N/A   Clear
11:53 AM 63.0 °F - 28.0 °F 27% 30.17 in 10.0 mi Calm Calm - N/A   Clear
12:53 PM 64.0 °F - 26.1 °F 24% 30.15 in 10.0 mi Calm Calm - N/A   Clear
1:53 PM 66.0 °F - 27.0 °F 23% 30.12 in 10.0 mi Calm Calm - N/A   Clear
2:53 PM 69.1 °F - 30.0 °F 23% 30.09 in 10.0 mi Calm Calm - N/A   Clear
3:53 PM 68.0 °F - 30.0 °F 24% 30.08 in 10.0 mi South 8.1 mph - N/A   Clear
4:53 PM 68.0 °F - 28.9 °F 23% 30.06 in 10.0 mi SE 5.8 mph - N/A   Clear
5:53 PM 68.0 °F - 30.0 °F 24% 30.05 in 10.0 mi Variable 6.9 mph - N/A   Clear
6:53 PM 66.0 °F - 30.9 °F 27% 30.05 in 10.0 mi SSW 6.9 mph - N/A   Clear
7:53 PM 60.1 °F - 30.9 °F 33% 30.06 in 10.0 mi SW 4.6 mph - N/A   Clear
8:53 PM 55.9 °F - 32.0 °F 40% 30.06 in 10.0 mi South 3.5 mph - N/A   Clear
9:53 PM 57.0 °F - 32.0 °F 39% 30.06 in 10.0 mi South 4.6 mph - N/A   Clear
10:53 PM 55.9 °F - 33.1 °F 42% 30.05 in 10.0 mi South 10.4 mph - N/A   Clear
11:53 PM 54.0 °F - 33.1 °F 45% 30.04 in 10.0 mi South 6.9 mph - N/A   Clear